SL-12 R/B(AUX MOTOR), 36407

Orbit data source: Space-Track

SL-12 R/B(AUX MOTOR), 36407 is space debris in HEO originally from a launch on Mon, 01 Mar 2010 UTC launched from the Tyuratam Missile And Space Complex (TTMTR). Debris objects in space refer to the collection of defunct objects orbiting the Earth. Examples of debris include non-operational satellites, rocket bodies, and fragments generated from explosions, collisions, or faulty payload assembly.

Loading next visibility...
Identifier
36407, 2010-007H
Orbit
HEO
Country
Flag of CISCIS
Related business
Manufacturer
RKKE
Mission
Spacecraft
Bus & Motor
SOZ, Unknown motor
Mass
56 kg wet, 56 kg dry
Launch date (UTC)
2010-03-01 (16 years ago)
Launch vehicle
Unknown
Launch site
Tyuratam Missile And Space Complex (TTMTR)
Object type
Payload
Rocket body
Debris
Shape & HBR
Cyl, 0.6 m
Radar Cross Section
0.660 m², Medium (>0.1 m² and < 1m²)

Expand to show TLE details & history
Last TLE update: 2 days ago

TLE from 2 days ago
0 SL-12 R/B(AUX MOTOR)
1 36407U 10007H   26032.87806350  .00000073  00000-0  27475-3 0  9996
2 36407  65.3323 228.2697 5573782 276.4264  26.1897  4.25537157246631
Epoch: 2026-02-01T21:04Z
TLE epoch observation values (Epoch: 2026-02-01T21:04:24.686Z)
Latitude
-0.00026°
Longitude
140.1037°
Altitude
4,071.468 km
Speed
7.178 km/s
True Right ascension
15h 13m 09s
True Declination
0° 00' 01"
Sunlit
Object was in daylight at epoch
Visualization orbit readout
Latitude
Unknown
Longitude
Unknown
Altitude
Unknown
Speed
Unknown
Apparent Right ascension
Unknown
Apparent Declination
Unknown
Sunlit
N/A
Visualization observer readout
Local Sidereal Time
13:02:00
Azimuth
Unknown
Elevation
Unknown
Doppler factor
Unknown
Orbital elements
Apogee altitude
18,671.823 km
Perigee altitude
741.302 km
Semi-major axis
16,084.699 km
Eccentricity
0.55738
Inclination
65.3323°
RAAN
228.2697°
Arg. of periapsis
276.4264°
True anomaly
83.65402°
Mean anomaly
26.1897°
Eccentric anomaly
51.0126°
Mean motion
1.06396 °/min
Orbital period
338.36 mins
BSTAR
0.00027475
Loading maneuver chart data...
Computing Atmospheric mass density...
Loading historical data...
Loading historical data...
Loading historical data...
Loading historical data...
Loading historical data...
Loading historical data...
Loading historical data...

Documentation

Showing up to 5 results
|